Time,TemperatureF,DewpointF,PressureIn,WindDirection,WindDirectionDegrees,WindSpeedMPH,WindSpeedGustMPH,Humidity,HourlyPrecipIn,Conditions,Clouds,dailyrainin,SoftwareType,DateUTC
2013-07-13 00:03:00,65.9,56.6,30.07,NW,315,0.0,0.0,72,0.00,,,0.00,WUHU216HW,2013-07-12 23:03:00,
2013-07-13 00:08:00,65.5,56.6,30.07,NW,315,0.0,0.0,73,0.00,,,0.00,WUHU216HW,2013-07-12 23:08:00,
2013-07-13 00:13:00,65.5,56.6,30.07,NW,315,0.0,0.0,73,0.00,,,0.00,WUHU216HW,2013-07-12 23:13:00,
2013-07-13 00:18:00,65.3,56.4,30.07,NW,315,0.0,0.0,73,0.00,,,0.00,WUHU216HW,2013-07-12 23:18:00,
2013-07-13 00:24:00,65.2,56.7,30.07,NW,315,0.0,0.0,74,0.00,,,0.00,WUHU216HW,2013-07-12 23:24:00,
2013-07-13 00:29:00,65.2,56.7,30.07,NW,315,0.0,0.0,74,0.00,,,0.00,WUHU216HW,2013-07-12 23:29:00,
2013-07-13 00:34:00,65.2,56.7,30.07,NW,315,0.0,0.0,74,0.00,,,0.00,WUHU216HW,2013-07-12 23:34:00,
2013-07-13 00:39:00,65.0,56.5,30.07,NW,315,0.0,0.0,74,0.00,,,0.00,WUHU216HW,2013-07-12 23:39:00,
2013-07-13 00:44:00,64.8,56.4,30.07,NW,315,0.0,0.0,74,0.00,,,0.00,WUHU216HW,2013-07-12 23:44:00,
2013-07-13 00:49:00,64.6,56.2,30.07,NW,315,0.0,0.0,74,0.00,,,0.00,WUHU216HW,2013-07-12 23:49:00,
2013-07-13 00:55:00,64.4,56.0,30.07,NW,315,0.0,0.0,74,0.00,,,0.00,WUHU216HW,2013-07-12 23:55:00,
2013-07-13 01:00:00,64.4,56.3,30.07,NW,315,0.0,0.0,75,0.00,,,0.00,WUHU216HW,2013-07-13 00:00:00,
2013-07-13 01:05:00,64.3,56.2,30.07,NW,315,0.0,0.0,75,0.00,,,0.00,WUHU216HW,2013-07-13 00:05:00,
2013-07-13 01:10:00,64.3,56.2,30.07,NW,315,0.0,0.0,75,0.00,,,0.00,WUHU216HW,2013-07-13 00:10:00,
2013-07-13 01:15:00,64.1,56.0,30.07,NW,315,0.0,0.0,75,0.00,,,0.00,WUHU216HW,2013-07-13 00:15:00,
2013-07-13 01:20:00,63.9,56.2,30.07,NW,315,0.0,0.0,76,0.00,,,0.00,WUHU216HW,2013-07-13 00:20:00,
2013-07-13 01:25:00,63.9,56.2,30.07,NW,315,0.0,0.0,76,0.00,,,0.00,WUHU216HW,2013-07-13 00:25:00,
2013-07-13 01:31:00,63.7,56.0,30.07,NW,315,0.0,0.0,76,0.00,,,0.00,WUHU216HW,2013-07-13 00:31:00,
2013-07-13 01:36:00,63.7,56.3,30.07,NW,315,0.0,0.0,77,0.00,,,0.00,WUHU216HW,2013-07-13 00:36:00,
2013-07-13 01:41:00,63.5,56.2,30.07,NW,315,0.0,0.0,77,0.00,,,0.00,WUHU216HW,2013-07-13 00:41:00,
2013-07-13 01:46:00,63.5,56.2,30.07,NW,315,0.0,0.0,77,0.00,,,0.00,WUHU216HW,2013-07-13 00:46:00,
2013-07-13 01:51:00,63.2,55.4,30.07,NW,315,0.0,0.0,76,0.00,,,0.00,WUHU216HW,2013-07-13 00:51:00,
2013-07-13 01:56:00,63.2,55.4,30.07,NW,315,0.0,0.0,76,0.00,,,0.00,WUHU216HW,2013-07-13 00:56:00,
2013-07-13 02:01:00,63.0,55.6,30.07,NW,315,0.0,0.0,77,0.00,,,0.00,WUHU216HW,2013-07-13 01:01:00,
2013-07-13 02:07:00,63.0,55.6,30.07,NW,315,0.0,0.0,77,0.00,,,0.00,WUHU216HW,2013-07-13 01:07:00,
2013-07-13 02:12:00,63.0,56.0,30.07,NW,315,0.0,0.0,78,0.00,,,0.00,WUHU216HW,2013-07-13 01:12:00,
2013-07-13 02:17:00,62.8,55.8,30.07,NW,315,0.0,0.0,78,0.00,,,0.00,WUHU216HW,2013-07-13 01:17:00,
2013-07-13 02:22:00,62.8,55.8,30.07,NW,315,0.0,0.0,78,0.00,,,0.00,WUHU216HW,2013-07-13 01:22:00,
2013-07-13 02:27:00,62.8,55.8,30.07,West,270,0.0,0.0,78,0.00,,,0.00,WUHU216HW,2013-07-13 01:27:00,
2013-07-13 02:32:00,62.6,56.0,30.07,West,270,0.0,0.0,79,0.00,,,0.00,WUHU216HW,2013-07-13 01:32:00,
2013-07-13 02:37:00,62.5,56.2,30.07,West,270,0.0,0.0,80,0.00,,,0.00,WUHU216HW,2013-07-13 01:37:00,
2013-07-13 02:42:00,62.5,56.2,30.07,West,270,0.0,0.0,80,0.00,,,0.00,WUHU216HW,2013-07-13 01:42:00,
2013-07-13 02:47:00,62.5,56.2,30.07,West,270,0.0,0.0,80,0.00,,,0.00,WUHU216HW,2013-07-13 01:47:00,
2013-07-13 02:53:00,62.3,56.3,30.07,West,270,0.0,0.0,81,0.00,,,0.00,WUHU216HW,2013-07-13 01:53:00,
2013-07-13 02:58:00,61.9,56.3,30.07,West,270,0.0,0.0,82,0.00,,,0.00,WUHU216HW,2013-07-13 01:58:00,
2013-07-13 03:03:00,61.9,56.3,30.07,West,270,0.0,0.0,82,0.00,,,0.00,WUHU216HW,2013-07-13 02:03:00,
2013-07-13 03:08:00,61.9,56.1,30.07,West,270,0.0,0.0,81,0.00,,,0.00,WUHU216HW,2013-07-13 02:08:00,
2013-07-13 03:14:00,61.9,56.1,30.07,West,270,0.0,0.0,81,0.00,,,0.00,WUHU216HW,2013-07-13 02:14:00,
2013-07-13 03:19:00,61.9,55.7,30.07,West,270,0.0,0.0,80,0.00,,,0.00,WUHU216HW,2013-07-13 02:19:00,
2013-07-13 03:24:00,61.7,55.9,30.07,West,270,0.0,0.0,81,0.00,,,0.00,WUHU216HW,2013-07-13 02:24:00,
2013-07-13 03:29:00,61.7,55.9,30.07,West,270,0.0,0.0,81,0.00,,,0.00,WUHU216HW,2013-07-13 02:29:00,
2013-07-13 03:34:00,61.6,55.4,30.07,West,270,0.0,0.0,80,0.00,,,0.00,WUHU216HW,2013-07-13 02:34:00,
2013-07-13 03:40:00,61.6,55.4,30.07,West,270,0.0,0.0,80,0.00,,,0.00,WUHU216HW,2013-07-13 02:40:00,
2013-07-13 03:45:00,61.6,55.4,30.07,West,270,0.0,0.0,80,0.00,,,0.00,WUHU216HW,2013-07-13 02:45:00,
2013-07-13 03:50:00,61.6,55.7,30.08,West,270,0.0,0.0,81,0.00,,,0.00,WUHU216HW,2013-07-13 02:50:00,
2013-07-13 03:55:00,61.4,55.5,30.07,West,270,0.0,0.0,81,0.00,,,0.00,WUHU216HW,2013-07-13 02:55:00,
2013-07-13 04:00:00,61.4,55.5,30.07,West,270,0.0,0.0,81,0.00,,,0.00,WUHU216HW,2013-07-13 03:00:00,
2013-07-13 04:05:00,61.2,55.7,30.07,West,270,0.0,0.0,82,0.00,,,0.00,WUHU216HW,2013-07-13 03:05:00,
2013-07-13 04:10:00,61.2,55.7,30.07,West,270,0.0,0.0,82,0.00,,,0.00,WUHU216HW,2013-07-13 03:10:00,
2013-07-13 04:15:00,61.2,55.7,30.07,West,270,0.0,0.0,82,0.00,,,0.00,WUHU216HW,2013-07-13 03:15:00,
2013-07-13 04:20:00,61.0,55.5,30.07,West,270,0.0,0.0,82,0.00,,,0.00,WUHU216HW,2013-07-13 03:20:00,
2013-07-13 04:26:00,61.0,55.9,30.07,West,270,0.0,0.0,83,0.00,,,0.00,WUHU216HW,2013-07-13 03:26:00,
2013-07-13 04:31:00,60.8,55.7,30.07,West,270,0.0,0.0,83,0.00,,,0.00,WUHU216HW,2013-07-13 03:31:00,
2013-07-13 04:36:00,60.8,55.7,30.07,West,270,0.0,0.0,83,0.00,,,0.00,WUHU216HW,2013-07-13 03:36:00,
2013-07-13 04:41:00,60.8,55.7,30.07,West,270,0.0,0.0,83,0.00,,,0.00,WUHU216HW,2013-07-13 03:41:00,
2013-07-13 04:46:00,60.8,55.7,30.07,West,270,0.0,0.0,83,0.00,,,0.00,WUHU216HW,2013-07-13 03:46:00,
2013-07-13 04:51:00,60.7,55.5,30.07,WSW,248,0.0,0.0,83,0.00,,,0.00,WUHU216HW,2013-07-13 03:51:00,
2013-07-13 04:57:00,60.7,55.5,30.07,SSW,203,0.0,0.0,83,0.00,,,0.00,WUHU216HW,2013-07-13 03:57:00,
2013-07-13 05:01:00,60.7,55.2,30.07,SSW,203,0.0,0.0,82,0.00,,,0.00,WUHU216HW,2013-07-13 04:01:00,
2013-07-13 05:02:00,60.7,55.5,30.07,SSW,203,0.0,0.0,83,0.00,,,0.00,WUHU216HW,2013-07-13 04:02:00,
2013-07-13 05:07:00,60.5,55.0,30.07,SSW,203,0.0,0.0,82,0.00,,,0.00,WUHU216HW,2013-07-13 04:07:00,
2013-07-13 05:12:00,60.5,55.4,30.07,SW,225,0.0,0.0,83,0.00,,,0.00,WUHU216HW,2013-07-13 04:12:00,
2013-07-13 05:17:00,60.5,55.4,30.07,SW,225,0.0,0.0,83,0.00,,,0.00,WUHU216HW,2013-07-13 04:17:00,
2013-07-13 05:22:00,60.3,55.8,30.07,SW,225,0.0,0.0,85,0.00,,,0.00,WUHU216HW,2013-07-13 04:22:00,
2013-07-13 05:27:00,60.3,55.2,30.07,SW,225,0.0,0.0,83,0.00,,,0.00,WUHU216HW,2013-07-13 04:27:00,
2013-07-13 05:32:00,60.3,55.2,30.07,SW,225,0.0,0.0,83,0.00,,,0.00,WUHU216HW,2013-07-13 04:32:00,
2013-07-13 05:37:00,60.3,55.2,30.07,SW,225,0.0,0.0,83,0.00,,,0.00,WUHU216HW,2013-07-13 04:37:00,
2013-07-13 05:42:00,60.3,55.2,30.07,SW,225,0.0,0.0,83,0.00,,,0.00,WUHU216HW,2013-07-13 04:42:00,
2013-07-13 05:47:00,60.5,55.4,30.07,SW,225,0.0,0.0,83,0.00,,,0.00,WUHU216HW,2013-07-13 04:47:00,
2013-07-13 05:52:00,60.5,55.4,30.07,SW,225,0.0,0.0,83,0.00,,,0.00,WUHU216HW,2013-07-13 04:52:00,
2013-07-13 05:57:00,60.5,55.4,30.07,SW,225,0.0,0.0,83,0.00,,,0.00,WUHU216HW,2013-07-13 04:57:00,
2013-07-13 06:02:00,60.7,55.8,30.07,SW,225,0.0,0.0,84,0.00,,,0.00,WUHU216HW,2013-07-13 05:02:00,
2013-07-13 06:07:00,60.5,55.6,30.07,SW,225,0.0,0.0,84,0.00,,,0.00,WUHU216HW,2013-07-13 05:07:00,
2013-07-13 06:12:00,60.5,55.6,30.07,SW,225,0.0,0.0,84,0.00,,,0.00,WUHU216HW,2013-07-13 05:12:00,
2013-07-13 06:17:00,60.7,55.8,30.07,SW,225,0.0,0.0,84,0.00,,,0.00,WUHU216HW,2013-07-13 05:17:00,
2013-07-13 06:22:00,60.8,56.0,30.07,SW,225,0.0,0.0,84,0.00,,,0.00,WUHU216HW,2013-07-13 05:22:00,
2013-07-13 06:27:00,60.8,56.3,30.07,SW,225,0.0,0.0,85,0.00,,,0.00,WUHU216HW,2013-07-13 05:27:00,
2013-07-13 06:32:00,60.8,56.0,30.07,SW,225,0.0,0.0,84,0.00,,,0.00,WUHU216HW,2013-07-13 05:32:00,
2013-07-13 06:37:00,61.2,56.3,30.07,SSW,203,0.0,0.0,84,0.00,,,0.00,WUHU216HW,2013-07-13 05:37:00,
2013-07-13 06:42:00,61.2,56.3,30.06,South,180,0.0,0.0,84,0.00,,,0.00,WUHU216HW,2013-07-13 05:42:00,
2013-07-13 06:47:00,61.6,56.7,30.07,South,180,0.0,0.0,84,0.00,,,0.00,WUHU216HW,2013-07-13 05:47:00,
2013-07-13 06:52:00,61.7,56.9,30.07,SW,225,0.0,0.9,84,0.00,,,0.00,WUHU216HW,2013-07-13 05:52:00,
2013-07-13 06:57:00,61.9,56.7,30.07,SW,225,0.4,1.8,83,0.00,,,0.00,WUHU216HW,2013-07-13 05:57:00,
2013-07-13 07:02:00,62.1,56.9,30.07,WSW,248,0.4,1.8,83,0.00,,,0.00,WUHU216HW,2013-07-13 06:02:00,
2013-07-13 07:07:00,62.3,57.1,30.07,SSW,203,0.2,1.3,83,0.00,,,0.00,WUHU216HW,2013-07-13 06:07:00,
2013-07-13 07:12:00,62.6,57.3,30.07,SSW,203,0.0,1.8,83,0.00,,,0.00,WUHU216HW,2013-07-13 06:12:00,
2013-07-13 07:17:00,63.0,57.4,30.07,South,180,1.1,1.8,82,0.00,,,0.00,WUHU216HW,2013-07-13 06:17:00,
2013-07-13 07:22:00,63.4,57.8,30.07,South,180,0.0,1.3,82,0.00,,,0.00,WUHU216HW,2013-07-13 06:22:00,
2013-07-13 07:27:00,63.9,58.0,30.07,South,180,0.0,1.1,81,0.00,,,0.00,WUHU216HW,2013-07-13 06:27:00,
2013-07-13 07:32:00,64.3,58.3,30.07,South,180,0.2,0.4,81,0.00,,,0.00,WUHU216HW,2013-07-13 06:32:00,
2013-07-13 07:37:00,64.4,58.1,30.07,South,180,0.2,0.4,80,0.00,,,0.00,WUHU216HW,2013-07-13 06:37:00,
2013-07-13 07:42:00,64.8,58.5,30.07,SSW,203,0.4,0.4,80,0.00,,,0.00,WUHU216HW,2013-07-13 06:42:00,
2013-07-13 07:47:00,65.3,59.0,30.07,SSW,203,0.2,1.6,80,0.00,,,0.00,WUHU216HW,2013-07-13 06:47:00,
2013-07-13 07:52:00,65.9,58.9,30.07,SSW,203,0.4,1.6,78,0.00,,,0.00,WUHU216HW,2013-07-13 06:52:00,
2013-07-13 07:57:00,66.1,58.6,30.07,SSW,203,0.4,1.3,77,0.00,,,0.00,WUHU216HW,2013-07-13 06:57:00,
2013-07-13 08:02:00,66.4,59.0,30.07,WSW,248,0.0,0.4,77,0.00,,,0.00,WUHU216HW,2013-07-13 07:02:00,
2013-07-13 08:07:00,66.4,59.0,30.07,WSW,248,0.0,0.4,77,0.00,,,0.00,WUHU216HW,2013-07-13 07:07:00,
2013-07-13 08:12:00,66.4,59.0,30.07,WSW,248,0.0,0.0,77,0.00,,,0.00,WUHU216HW,2013-07-13 07:12:00,
2013-07-13 08:17:00,67.9,59.3,30.07,SSE,158,0.4,0.4,74,0.00,,,0.00,WUHU216HW,2013-07-13 07:17:00,
2013-07-13 08:22:00,68.4,59.8,30.07,SW,225,0.2,0.9,74,0.00,,,0.00,WUHU216HW,2013-07-13 07:22:00,
2013-07-13 08:27:00,68.8,59.4,30.07,SW,225,0.2,0.9,72,0.00,,,0.00,WUHU216HW,2013-07-13 07:27:00,
2013-07-13 08:32:00,69.3,59.5,30.08,WSW,248,0.2,0.7,71,0.00,,,0.00,WUHU216HW,2013-07-13 07:32:00,
2013-07-13 08:37:00,69.8,59.6,30.08,WNW,293,0.4,0.7,70,0.00,,,0.00,WUHU216HW,2013-07-13 07:37:00,
2013-07-13 08:42:00,70.2,59.9,30.08,WNW,293,0.4,0.7,70,0.00,,,0.00,WUHU216HW,2013-07-13 07:42:00,
2013-07-13 08:47:00,70.7,60.5,30.07,WNW,293,0.4,2.0,70,0.00,,,0.00,WUHU216HW,2013-07-13 07:47:00,
2013-07-13 08:52:00,71.1,60.8,30.07,NW,315,0.2,2.0,70,0.00,,,0.00,WUHU216HW,2013-07-13 07:52:00,
2013-07-13 08:57:00,71.6,60.9,30.07,SE,135,0.9,1.1,69,0.00,,,0.00,WUHU216HW,2013-07-13 07:57:00,
2013-07-13 09:02:00,72.2,61.5,30.08,NW,315,0.9,1.6,69,0.00,,,0.00,WUHU216HW,2013-07-13 08:02:00,
2013-07-13 09:07:00,72.5,61.8,30.08,ENE,68,0.4,2.0,69,0.00,,,0.00,WUHU216HW,2013-07-13 08:07:00,
2013-07-13 09:12:00,72.9,62.2,30.08,ENE,68,1.8,2.0,69,0.00,,,0.00,WUHU216HW,2013-07-13 08:12:00,
2013-07-13 09:17:00,73.3,62.1,30.08,NW,315,0.0,1.8,68,0.00,,,0.00,WUHU216HW,2013-07-13 08:17:00,
2013-07-13 09:22:00,73.8,62.7,30.08,NE,45,0.2,1.8,68,0.00,,,0.00,WUHU216HW,2013-07-13 08:22:00,
2013-07-13 09:27:00,74.2,62.5,30.08,ESE,113,0.4,1.8,67,0.00,,,0.00,WUHU216HW,2013-07-13 08:27:00,
2013-07-13 09:32:00,74.7,63.0,30.08,East,90,0.7,1.8,67,0.00,,,0.00,WUHU216HW,2013-07-13 08:32:00,
2013-07-13 09:37:00,75.2,62.6,30.08,WNW,293,3.1,3.1,65,0.00,,,0.00,WUHU216HW,2013-07-13 08:37:00,
2013-07-13 09:42:00,75.8,63.6,30.08,WNW,293,0.9,3.4,66,0.00,,,0.00,WUHU216HW,2013-07-13 08:42:00,
2013-07-13 09:47:00,76.1,63.5,30.08,East,90,0.4,3.4,65,0.00,,,0.00,WUHU216HW,2013-07-13 08:47:00,
2013-07-13 09:52:00,76.3,63.2,30.08,WNW,293,0.7,2.9,64,0.00,,,0.00,WUHU216HW,2013-07-13 08:52:00,
2013-07-13 09:57:00,76.5,63.4,30.08,South,180,1.6,4.7,64,0.00,,,0.00,WUHU216HW,2013-07-13 08:57:00,
2013-07-13 10:02:00,76.9,63.3,30.08,SSE,158,0.4,4.7,63,0.00,,,0.00,WUHU216HW,2013-07-13 09:02:00,
2013-07-13 10:07:00,77.2,63.6,30.08,WNW,293,1.1,2.9,63,0.00,,,0.00,WUHU216HW,2013-07-13 09:07:00,
2013-07-13 10:12:00,77.4,63.8,30.08,NNW,338,0.4,2.0,63,0.00,,,0.00,WUHU216HW,2013-07-13 09:12:00,
2013-07-13 10:17:00,77.8,64.2,30.07,WNW,293,1.1,2.0,63,0.00,,,0.00,WUHU216HW,2013-07-13 09:17:00,
2013-07-13 10:22:00,78.3,64.7,30.07,West,270,0.9,2.0,63,0.00,,,0.00,WUHU216HW,2013-07-13 09:22:00,
2013-07-13 10:27:00,78.8,64.4,30.07,SW,225,0.9,2.0,61,0.00,,,0.00,WUHU216HW,2013-07-13 09:27:00,
2013-07-13 10:32:00,79.2,64.6,30.07,West,270,2.2,2.2,61,0.00,,,0.00,WUHU216HW,2013-07-13 09:32:00,
2013-07-13 10:37:00,79.6,64.5,30.07,West,270,1.1,2.2,60,0.00,,,0.00,WUHU216HW,2013-07-13 09:37:00,
2013-07-13 10:42:00,79.9,64.9,30.07,WNW,293,1.8,2.2,60,0.00,,,0.00,WUHU216HW,2013-07-13 09:42:00,
2013-07-13 10:47:00,80.3,64.7,30.07,East,90,0.4,1.8,59,0.00,,,0.00,WUHU216HW,2013-07-13 09:47:00,
2013-07-13 10:52:00,80.6,65.0,30.07,SW,225,0.7,2.0,59,0.00,,,0.00,WUHU216HW,2013-07-13 09:52:00,
2013-07-13 10:57:00,80.6,64.4,30.07,North,0,2.7,4.3,58,0.00,,,0.00,WUHU216HW,2013-07-13 09:57:00,
2013-07-13 11:02:00,81.4,65.2,30.07,NW,315,2.5,4.3,58,0.00,,,0.00,WUHU216HW,2013-07-13 10:02:00,
2013-07-13 11:07:00,81.7,64.5,30.07,West,270,4.0,4.0,56,0.00,,,0.00,WUHU216HW,2013-07-13 10:07:00,
2013-07-13 11:12:00,81.9,64.5,30.07,WNW,293,4.0,5.1,56,0.00,,,0.00,WUHU216HW,2013-07-13 10:12:00,
2013-07-13 11:17:00,81.7,64.5,30.07,WNW,293,2.5,5.1,56,0.00,,,0.00,WUHU216HW,2013-07-13 10:17:00,
2013-07-13 11:22:00,81.9,64.1,30.07,West,270,1.1,6.3,55,0.00,,,0.00,WUHU216HW,2013-07-13 10:22:00,
2013-07-13 11:27:00,82.4,64.5,30.07,West,270,4.7,6.3,55,0.00,,,0.00,WUHU216HW,2013-07-13 10:27:00,
2013-07-13 11:32:00,82.8,64.4,30.07,West,270,7.4,7.4,54,0.00,,,0.00,WUHU216HW,2013-07-13 10:32:00,
2013-07-13 11:37:00,82.8,64.4,30.07,WNW,293,4.7,7.4,54,0.00,,,0.00,WUHU216HW,2013-07-13 10:37:00,
2013-07-13 11:42:00,83.0,65.1,30.07,NW,315,3.6,7.4,55,0.00,,,0.00,WUHU216HW,2013-07-13 10:42:00,
2013-07-13 11:47:00,82.8,64.4,30.07,WNW,293,0.7,4.7,54,0.00,,,0.00,WUHU216HW,2013-07-13 10:47:00,
2013-07-13 11:52:00,82.8,64.4,30.07,WSW,248,1.8,3.6,54,0.00,,,0.00,WUHU216HW,2013-07-13 10:52:00,
2013-07-13 11:57:00,82.8,64.4,30.07,NW,315,1.3,3.4,54,0.00,,,0.00,WUHU216HW,2013-07-13 10:57:00,
2013-07-13 12:02:00,82.6,64.7,30.07,SW,225,1.8,4.5,55,0.00,,,0.00,WUHU216HW,2013-07-13 11:02:00,
2013-07-13 12:07:00,82.6,64.2,30.07,WNW,293,0.2,4.5,54,0.00,,,0.00,WUHU216HW,2013-07-13 11:07:00,
2013-07-13 12:12:00,82.8,64.4,30.07,East,90,3.1,3.1,54,0.00,,,0.00,WUHU216HW,2013-07-13 11:12:00,
2013-07-13 12:17:00,83.0,64.5,30.07,NW,315,2.0,3.1,54,0.00,,,0.00,WUHU216HW,2013-07-13 11:17:00,
2013-07-13 12:22:00,83.2,64.7,30.07,SSW,203,0.4,5.4,54,0.00,,,0.00,WUHU216HW,2013-07-13 11:22:00,
2013-07-13 12:27:00,83.2,64.7,30.06,WNW,293,2.9,5.4,54,0.00,,,0.00,WUHU216HW,2013-07-13 11:27:00,
2013-07-13 12:32:00,83.5,63.6,30.06,NW,315,0.7,4.7,51,0.00,,,0.00,WUHU216HW,2013-07-13 11:32:00,
2013-07-13 12:37:00,83.3,63.9,30.06,NW,315,0.4,4.5,52,0.00,,,0.00,WUHU216HW,2013-07-13 11:37:00,
2013-07-13 12:42:00,83.7,63.7,30.06,ENE,68,0.9,4.5,51,0.00,,,0.00,WUHU216HW,2013-07-13 11:42:00,
2013-07-13 12:47:00,84.2,63.7,30.07,SSE,158,0.4,3.1,50,0.00,,,0.00,WUHU216HW,2013-07-13 11:47:00,
2013-07-13 12:52:00,83.9,63.9,30.07,WNW,293,2.7,4.0,51,0.00,,,0.00,WUHU216HW,2013-07-13 11:52:00,
2013-07-13 12:57:00,83.5,64.5,30.07,NW,315,1.1,4.5,53,0.00,,,0.00,WUHU216HW,2013-07-13 11:57:00,
2013-07-13 13:02:00,84.4,63.9,30.06,NW,315,3.1,4.5,50,0.00,,,0.00,WUHU216HW,2013-07-13 12:02:00,
2013-07-13 13:07:00,84.2,64.3,30.06,WNW,293,3.8,3.8,51,0.00,,,0.00,WUHU216HW,2013-07-13 12:07:00,
2013-07-13 13:12:00,84.8,62.3,30.07,ESE,113,0.4,6.3,47,0.00,,,0.00,WUHU216HW,2013-07-13 12:12:00,
2013-07-13 13:17:00,85.1,64.5,30.06,WNW,293,1.8,6.3,50,0.00,,,0.00,WUHU216HW,2013-07-13 12:17:00,
2013-07-13 13:22:00,85.5,63.0,30.06,NNW,338,4.5,4.5,47,0.00,,,0.00,WUHU216HW,2013-07-13 12:22:00,
2013-07-13 13:27:00,85.5,63.6,30.06,ESE,113,1.6,4.5,48,0.00,,,0.00,WUHU216HW,2013-07-13 12:27:00,
2013-07-13 13:32:00,85.7,63.7,30.06,NW,315,2.5,4.5,48,0.00,,,0.00,WUHU216HW,2013-07-13 12:32:00,
2013-07-13 13:37:00,84.8,63.5,30.06,NW,315,1.1,4.5,49,0.00,,,0.00,WUHU216HW,2013-07-13 12:37:00,
2013-07-13 13:42:00,84.2,62.5,30.06,NW,315,0.4,5.6,48,0.00,,,0.00,WUHU216HW,2013-07-13 12:42:00,
2013-07-13 13:47:00,84.6,63.5,30.06,North,0,0.4,5.6,49,0.00,,,0.00,WUHU216HW,2013-07-13 12:47:00,
2013-07-13 13:52:00,85.3,62.2,30.06,WSW,248,1.1,4.9,46,0.00,,,0.00,WUHU216HW,2013-07-13 12:52:00,
2013-07-13 13:57:00,85.3,63.5,30.06,WNW,293,1.1,4.9,48,0.00,,,0.00,WUHU216HW,2013-07-13 12:57:00,
2013-07-13 14:02:00,85.7,63.1,30.06,NNW,338,3.1,5.6,47,0.00,,,0.00,WUHU216HW,2013-07-13 13:02:00,
2013-07-13 14:07:00,85.7,63.1,30.06,NW,315,4.0,5.6,47,0.00,,,0.00,WUHU216HW,2013-07-13 13:07:00,
2013-07-13 14:12:00,86.0,62.2,30.06,South,180,0.0,4.0,45,0.00,,,0.00,WUHU216HW,2013-07-13 13:12:00,
2013-07-13 14:17:00,86.0,61.6,30.06,NW,315,4.5,4.7,44,0.00,,,0.00,WUHU216HW,2013-07-13 13:17:00,
2013-07-13 14:22:00,85.7,61.8,30.06,WSW,248,2.5,5.1,45,0.00,,,0.00,WUHU216HW,2013-07-13 13:22:00,
2013-07-13 14:27:00,85.5,61.8,30.06,NW,315,0.9,5.1,45,0.00,,,0.00,WUHU216HW,2013-07-13 13:27:00,
2013-07-13 14:32:00,85.7,61.8,30.05,NNE,23,2.5,4.0,45,0.00,,,0.00,WUHU216HW,2013-07-13 13:32:00,
2013-07-13 14:37:00,86.0,60.9,30.06,West,270,1.1,4.3,43,0.00,,,0.00,WUHU216HW,2013-07-13 13:37:00,
2013-07-13 14:42:00,86.0,60.9,30.05,WNW,293,0.7,4.3,43,0.00,,,0.00,WUHU216HW,2013-07-13 13:42:00,
2013-07-13 14:47:00,86.4,61.9,30.05,NW,315,4.0,4.0,44,0.00,,,0.00,WUHU216HW,2013-07-13 13:47:00,
2013-07-13 14:52:00,86.6,60.8,30.06,East,90,3.4,4.0,42,0.00,,,0.00,WUHU216HW,2013-07-13 13:52:00,
2013-07-13 14:57:00,86.8,60.9,30.06,ENE,68,0.9,4.0,42,0.00,,,0.00,WUHU216HW,2013-07-13 13:57:00,
2013-07-13 15:02:00,86.9,61.1,30.05,North,0,1.1,4.0,42,0.00,,,0.00,WUHU216HW,2013-07-13 14:02:00,
2013-07-13 15:07:00,86.9,61.1,30.06,NE,45,2.2,4.0,42,0.00,,,0.00,WUHU216HW,2013-07-13 14:07:00,
2013-07-13 15:12:00,86.9,61.1,30.06,ENE,68,1.3,4.9,42,0.00,,,0.00,WUHU216HW,2013-07-13 14:12:00,
2013-07-13 15:17:00,86.8,60.9,30.06,WNW,293,2.7,4.9,42,0.00,,,0.00,WUHU216HW,2013-07-13 14:17:00,
2013-07-13 15:22:00,86.6,61.4,30.06,NW,315,2.0,5.4,43,0.00,,,0.00,WUHU216HW,2013-07-13 14:22:00,
2013-07-13 15:27:00,86.8,60.9,30.06,West,270,2.0,5.4,42,0.00,,,0.00,WUHU216HW,2013-07-13 14:27:00,
2013-07-13 15:32:00,86.8,60.9,30.06,NNW,338,0.4,6.9,42,0.00,,,0.00,WUHU216HW,2013-07-13 14:32:00,
2013-07-13 15:37:00,86.4,60.7,30.06,NW,315,3.6,6.9,42,0.00,,,0.00,WUHU216HW,2013-07-13 14:37:00,
2013-07-13 15:42:00,86.2,60.5,30.05,NW,315,1.3,4.3,42,0.00,,,0.00,WUHU216HW,2013-07-13 14:42:00,
2013-07-13 15:47:00,86.8,60.9,30.05,West,270,1.1,3.8,42,0.00,,,0.00,WUHU216HW,2013-07-13 14:47:00,
2013-07-13 15:52:00,87.5,61.6,30.05,NNW,338,0.4,5.8,42,0.00,,,0.00,WUHU216HW,2013-07-13 14:52:00,
2013-07-13 15:57:00,88.2,61.6,30.05,West,270,1.1,5.8,41,0.00,,,0.00,WUHU216HW,2013-07-13 14:57:00,
2013-07-13 16:02:00,88.2,60.9,30.06,West,270,0.4,4.7,40,0.00,,,0.00,WUHU216HW,2013-07-13 15:02:00,
2013-07-13 16:07:00,88.6,61.8,30.06,NE,45,1.8,3.4,41,0.00,,,0.00,WUHU216HW,2013-07-13 15:07:00,
2013-07-13 16:12:00,89.3,61.0,30.06,West,270,1.1,3.6,39,0.00,,,0.00,WUHU216HW,2013-07-13 15:12:00,
2013-07-13 16:17:00,89.5,61.9,30.05,NNE,23,1.1,4.0,40,0.00,,,0.00,WUHU216HW,2013-07-13 15:17:00,
2013-07-13 16:22:00,87.8,61.3,30.05,SE,135,0.4,5.4,41,0.00,,,0.00,WUHU216HW,2013-07-13 15:22:00,
2013-07-13 16:27:00,87.1,61.3,30.05,NNW,338,2.2,5.4,42,0.00,,,0.00,WUHU216HW,2013-07-13 15:27:00,
2013-07-13 16:32:00,87.1,61.9,30.05,NW,315,3.8,4.7,43,0.00,,,0.00,WUHU216HW,2013-07-13 15:32:00,
2013-07-13 16:37:00,87.5,61.6,30.05,WNW,293,3.4,4.7,42,0.00,,,0.00,WUHU216HW,2013-07-13 15:37:00,
2013-07-13 16:42:00,87.1,61.3,30.05,ENE,68,2.7,3.8,42,0.00,,,0.00,WUHU216HW,2013-07-13 15:42:00,
2013-07-13 16:47:00,87.3,61.5,30.05,WNW,293,0.0,3.6,42,0.00,,,0.00,WUHU216HW,2013-07-13 15:47:00,
2013-07-13 16:52:00,86.9,61.1,30.05,NE,45,0.7,2.7,42,0.00,,,0.00,WUHU216HW,2013-07-13 15:52:00,
2013-07-13 16:57:00,86.8,61.6,30.05,SW,225,0.4,2.7,43,0.00,,,0.00,WUHU216HW,2013-07-13 15:57:00,
2013-07-13 17:02:00,86.8,61.6,30.05,ESE,113,1.1,5.8,43,0.00,,,0.00,WUHU216HW,2013-07-13 16:02:00,
2013-07-13 17:07:00,86.6,60.8,30.05,WNW,293,2.9,5.8,42,0.00,,,0.00,WUHU216HW,2013-07-13 16:07:00,
2013-07-13 17:12:00,86.4,60.7,30.05,East,90,2.5,4.9,42,0.00,,,0.00,WUHU216HW,2013-07-13 16:12:00,
2013-07-13 17:17:00,86.6,60.8,30.04,ESE,113,0.4,4.9,42,0.00,,,0.00,WUHU216HW,2013-07-13 16:17:00,
2013-07-13 17:22:00,86.4,60.7,30.05,NW,315,0.4,2.7,42,0.00,,,0.00,WUHU216HW,2013-07-13 16:22:00,
2013-07-13 17:27:00,86.6,60.8,30.05,West,270,1.1,5.4,42,0.00,,,0.00,WUHU216HW,2013-07-13 16:27:00,
2013-07-13 17:32:00,86.2,60.5,30.05,NW,315,0.4,5.6,42,0.00,,,0.00,WUHU216HW,2013-07-13 16:32:00,
2013-07-13 17:37:00,86.0,60.3,30.05,ENE,68,1.1,5.6,42,0.00,,,0.00,WUHU216HW,2013-07-13 16:37:00,
2013-07-13 17:42:00,86.4,60.7,30.05,NNW,338,1.8,2.5,42,0.00,,,0.00,WUHU216HW,2013-07-13 16:42:00,
2013-07-13 17:47:00,86.4,60.7,30.04,NNE,23,1.1,3.4,42,0.00,,,0.00,WUHU216HW,2013-07-13 16:47:00,
2013-07-13 17:52:00,86.0,60.9,30.05,NW,315,0.9,4.0,43,0.00,,,0.00,WUHU216HW,2013-07-13 16:52:00,
2013-07-13 17:57:00,85.9,59.5,30.05,ENE,68,1.1,4.0,41,0.00,,,0.00,WUHU216HW,2013-07-13 16:57:00,
2013-07-13 18:02:00,86.0,60.3,30.05,ENE,68,0.7,3.1,42,0.00,,,0.00,WUHU216HW,2013-07-13 17:02:00,
2013-07-13 18:07:00,85.9,59.5,30.05,WNW,293,0.0,2.7,41,0.00,,,0.00,WUHU216HW,2013-07-13 17:07:00,
2013-07-13 18:12:00,85.9,59.5,30.05,NW,315,0.4,2.7,41,0.00,,,0.00,WUHU216HW,2013-07-13 17:12:00,
2013-07-13 18:17:00,86.0,60.9,30.04,West,270,0.2,1.3,43,0.00,,,0.00,WUHU216HW,2013-07-13 17:17:00,
2013-07-13 18:22:00,86.0,60.9,30.04,NE,45,0.4,1.8,43,0.00,,,0.00,WUHU216HW,2013-07-13 17:22:00,
2013-07-13 18:27:00,86.0,60.9,30.04,East,90,0.7,4.5,43,0.00,,,0.00,WUHU216HW,2013-07-13 17:27:00,
2013-07-13 18:32:00,86.0,60.9,30.04,NE,45,2.9,4.5,43,0.00,,,0.00,WUHU216HW,2013-07-13 17:32:00,
2013-07-13 18:37:00,86.0,60.9,30.04,SE,135,2.5,3.8,43,0.00,,,0.00,WUHU216HW,2013-07-13 17:37:00,
2013-07-13 18:42:00,85.7,59.9,30.04,ENE,68,1.8,3.8,42,0.00,,,0.00,WUHU216HW,2013-07-13 17:42:00,
2013-07-13 18:47:00,85.7,60.6,30.04,ENE,68,0.4,3.8,43,0.00,,,0.00,WUHU216HW,2013-07-13 17:47:00,
2013-07-13 18:52:00,85.7,60.6,30.04,North,0,0.2,3.1,43,0.00,,,0.00,WUHU216HW,2013-07-13 17:52:00,
2013-07-13 18:57:00,85.3,60.3,30.04,ESE,113,0.7,3.1,43,0.00,,,0.00,WUHU216HW,2013-07-13 17:57:00,
2013-07-13 19:02:00,85.3,60.3,30.05,ENE,68,0.7,1.8,43,0.00,,,0.00,WUHU216HW,2013-07-13 18:02:00,
2013-07-13 19:07:00,85.1,60.1,30.05,NE,45,1.1,3.8,43,0.00,,,0.00,WUHU216HW,2013-07-13 18:07:00,
2013-07-13 19:12:00,85.0,60.6,30.05,WSW,248,0.4,3.8,44,0.00,,,0.00,WUHU216HW,2013-07-13 18:12:00,
2013-07-13 19:17:00,85.0,59.9,30.05,ENE,68,0.4,2.2,43,0.00,,,0.00,WUHU216HW,2013-07-13 18:17:00,
2013-07-13 19:22:00,85.0,60.6,30.05,NE,45,0.0,2.2,44,0.00,,,0.00,WUHU216HW,2013-07-13 18:22:00,
2013-07-13 19:27:00,84.6,60.9,30.05,SSW,203,0.2,1.8,45,0.00,,,0.00,WUHU216HW,2013-07-13 18:27:00,
2013-07-13 19:32:00,84.6,60.9,30.05,NE,45,0.0,2.5,45,0.00,,,0.00,WUHU216HW,2013-07-13 18:32:00,
2013-07-13 19:37:00,84.2,60.6,30.05,ENE,68,0.4,2.5,45,0.00,,,0.00,WUHU216HW,2013-07-13 18:37:00,
2013-07-13 19:42:00,84.2,60.6,30.05,NNE,23,0.4,1.8,45,0.00,,,0.00,WUHU216HW,2013-07-13 18:42:00,
2013-07-13 19:47:00,84.2,61.2,30.05,East,90,0.2,1.6,46,0.00,,,0.00,WUHU216HW,2013-07-13 18:47:00,
2013-07-13 19:52:00,84.1,61.0,30.05,East,90,0.0,1.1,46,0.00,,,0.00,WUHU216HW,2013-07-13 18:52:00,
2013-07-13 19:57:00,83.9,61.5,30.05,East,90,0.9,1.1,47,0.00,,,0.00,WUHU216HW,2013-07-13 18:57:00,
2013-07-13 20:02:00,83.7,61.3,30.05,ESE,113,0.4,1.1,47,0.00,,,0.00,WUHU216HW,2013-07-13 19:02:00,
2013-07-13 20:07:00,83.5,61.7,30.05,East,90,0.4,0.9,48,0.00,,,0.00,WUHU216HW,2013-07-13 19:07:00,
2013-07-13 20:12:00,83.2,61.4,30.05,ENE,68,0.9,2.2,48,0.00,,,0.00,WUHU216HW,2013-07-13 19:12:00,
2013-07-13 20:17:00,83.0,61.2,30.05,ESE,113,0.4,2.2,48,0.00,,,0.00,WUHU216HW,2013-07-13 19:17:00,
2013-07-13 20:22:00,83.0,61.8,30.05,ENE,68,0.2,2.2,49,0.00,,,0.00,WUHU216HW,2013-07-13 19:22:00,
2013-07-13 20:27:00,82.8,61.7,30.05,East,90,0.0,1.8,49,0.00,,,0.00,WUHU216HW,2013-07-13 19:27:00,
2013-07-13 20:32:00,82.4,61.3,30.05,East,90,0.0,1.1,49,0.00,,,0.00,WUHU216HW,2013-07-13 19:32:00,
2013-07-13 20:37:00,82.4,61.9,30.06,East,90,0.0,0.7,50,0.00,,,0.00,WUHU216HW,2013-07-13 19:37:00,
2013-07-13 20:42:00,82.1,62.1,30.06,East,90,0.0,0.2,51,0.00,,,0.00,WUHU216HW,2013-07-13 19:42:00,
2013-07-13 20:47:00,81.7,61.8,30.06,ESE,113,0.0,0.7,51,0.00,,,0.00,WUHU216HW,2013-07-13 19:47:00,
2013-07-13 20:52:00,81.4,61.5,30.06,ESE,113,0.0,0.9,51,0.00,,,0.00,WUHU216HW,2013-07-13 19:52:00,
2013-07-13 20:57:00,81.2,61.8,30.06,SSE,158,1.6,1.8,52,0.00,,,0.00,WUHU216HW,2013-07-13 19:57:00,
2013-07-13 21:02:00,81.0,62.7,30.06,ESE,113,0.0,2.2,54,0.00,,,0.00,WUHU216HW,2013-07-13 20:02:00,
2013-07-13 21:07:00,80.6,62.9,30.06,SE,135,0.4,2.2,55,0.00,,,0.00,WUHU216HW,2013-07-13 20:07:00,
2013-07-13 21:12:00,80.3,63.1,30.07,ESE,113,0.4,2.2,56,0.00,,,0.00,WUHU216HW,2013-07-13 20:12:00,
2013-07-13 21:17:00,79.9,64.4,30.07,South,180,3.4,3.4,59,0.00,,,0.00,WUHU216HW,2013-07-13 20:17:00,
2013-07-13 21:22:00,79.2,64.3,30.07,WSW,248,0.9,4.0,60,0.00,,,0.00,WUHU216HW,2013-07-13 20:22:00,
2013-07-13 21:27:00,78.8,64.4,30.07,SE,135,0.7,4.0,61,0.00,,,0.00,WUHU216HW,2013-07-13 20:27:00,
2013-07-13 21:32:00,78.5,64.0,30.08,SE,135,1.8,3.1,61,0.00,,,0.00,WUHU216HW,2013-07-13 20:32:00,
2013-07-13 21:37:00,78.1,63.6,30.08,SE,135,0.0,3.1,61,0.00,,,0.00,WUHU216HW,2013-07-13 20:37:00,
2013-07-13 21:42:00,77.8,63.3,30.08,ESE,113,0.4,1.8,61,0.00,,,0.00,WUHU216HW,2013-07-13 20:42:00,
2013-07-13 21:47:00,77.4,63.4,30.08,SSE,158,1.8,1.8,62,0.00,,,0.00,WUHU216HW,2013-07-13 20:47:00,
2013-07-13 21:52:00,77.0,63.0,30.08,SSE,158,0.2,2.0,62,0.00,,,0.00,WUHU216HW,2013-07-13 20:52:00,
2013-07-13 21:57:00,76.7,63.1,30.08,SE,135,0.9,2.2,63,0.00,,,0.00,WUHU216HW,2013-07-13 20:57:00,
2013-07-13 22:02:00,76.3,63.2,30.08,SE,135,0.2,2.2,64,0.00,,,0.00,WUHU216HW,2013-07-13 21:02:00,
2013-07-13 22:07:00,76.1,63.1,30.08,South,180,1.6,2.9,64,0.00,,,0.00,WUHU216HW,2013-07-13 21:07:00,
2013-07-13 22:12:00,75.8,62.7,30.08,ESE,113,0.4,2.9,64,0.00,,,0.00,WUHU216HW,2013-07-13 21:12:00,
2013-07-13 22:17:00,75.6,62.6,30.08,East,90,0.7,2.7,64,0.00,,,0.00,WUHU216HW,2013-07-13 21:17:00,
2013-07-13 22:22:00,75.4,62.8,30.08,South,180,1.1,1.8,65,0.00,,,0.00,WUHU216HW,2013-07-13 21:22:00,
2013-07-13 22:27:00,75.1,62.5,30.08,ESE,113,1.3,1.8,65,0.00,,,0.00,WUHU216HW,2013-07-13 21:27:00,
2013-07-13 22:32:00,74.9,62.3,30.08,ESE,113,1.3,1.8,65,0.00,,,0.00,WUHU216HW,2013-07-13 21:32:00,
2013-07-13 22:37:00,74.5,61.9,30.08,South,180,1.1,2.9,65,0.00,,,0.00,WUHU216HW,2013-07-13 21:37:00,
2013-07-13 22:42:00,74.5,61.9,30.08,SSW,203,1.8,2.9,65,0.00,,,0.00,WUHU216HW,2013-07-13 21:42:00,
2013-07-13 22:47:00,74.3,62.2,30.08,SSW,203,0.0,1.8,66,0.00,,,0.00,WUHU216HW,2013-07-13 21:47:00,
2013-07-13 22:52:00,74.2,61.7,30.08,SE,135,0.2,1.8,65,0.00,,,0.00,WUHU216HW,2013-07-13 21:52:00,
2013-07-13 22:57:00,74.0,61.5,30.08,South,180,0.7,1.3,65,0.00,,,0.00,WUHU216HW,2013-07-13 21:57:00,
2013-07-13 23:02:00,73.8,61.3,30.08,South,180,0.0,1.1,65,0.00,,,0.00,WUHU216HW,2013-07-13 22:02:00,
2013-07-13 23:07:00,73.6,61.6,30.08,South,180,0.0,1.1,66,0.00,,,0.00,WUHU216HW,2013-07-13 22:07:00,
2013-07-13 23:12:00,73.4,61.4,30.08,South,180,0.0,0.4,66,0.00,,,0.00,WUHU216HW,2013-07-13 22:12:00,
2013-07-13 23:17:00,73.4,61.4,30.08,South,180,0.2,0.4,66,0.00,,,0.00,WUHU216HW,2013-07-13 22:17:00,
2013-07-13 23:22:00,73.3,61.2,30.08,South,180,0.4,0.7,66,0.00,,,0.00,WUHU216HW,2013-07-13 22:22:00,
2013-07-13 23:27:00,73.1,61.0,30.08,South,180,0.0,0.7,66,0.00,,,0.00,WUHU216HW,2013-07-13 22:27:00,
2013-07-13 23:32:00,72.9,60.8,30.09,South,180,0.0,0.7,66,0.00,,,0.00,WUHU216HW,2013-07-13 22:32:00,
2013-07-13 23:37:00,72.7,61.1,30.09,South,180,0.4,0.4,67,0.00,,,0.00,WUHU216HW,2013-07-13 22:37:00,
2013-07-13 23:43:00,72.4,60.8,30.08,East,90,1.6,1.6,67,0.00,,,0.00,WUHU216HW,2013-07-13 22:43:00,
2013-07-13 23:48:00,72.4,61.2,30.08,ENE,68,1.6,1.6,68,0.00,,,0.00,WUHU216HW,2013-07-13 22:48:00,
2013-07-13 23:53:00,72.0,60.8,30.09,ENE,68,0.4,1.8,68,0.00,,,0.00,WUHU216HW,2013-07-13 22:53:00,
2013-07-13 23:58:00,71.6,60.5,30.09,ESE,113,0.9,2.5,68,0.00,,,0.00,WUHU216HW,2013-07-13 22:58:00,